Dewpoint
52 51 48 46 47 48 47 47 46 46 46 45 46 47 48 48 48 48 48 48 46 44
51 51 50 49 47 47 48 47 47 46 46 46 47 47 47 47 46 46 48 48 47 45
52 52 51 51 50 49 49 47 47 47 46 47 47 48 48 48 47 46 47 48 46 46
52 52 52 51 51 50 50 49 49 49 49 48 48 48 48 47 47 46 46 46 45 45
53 52 52 52 51 52 51 52 50 51 50 49 47 47 46 45 45 45 44 44 45 44
52 52 52 52 52 52 51 51 52 51 51 50 49 48 47 46 46 45 45 45 45 45
52 52 52 52 52 52 52 51 51 51 50 50 49 48 47 47 46 46 46 46 45 46
52 52 52 52 52 52 51 51 51 50 50 49 48 48 47 47 46 46 45 45 45 45
51 51 51 51 50 50 50 49 49 49 49 48 48 48 48 47 46 45 45 42 41 39
49 49 49 49 49 49 48 48 48 48 48 47 46 47 48 47 44 41 39 37 36 34
47 46 47 48 48 46 46 46 45 44 44 43 42 45 46 44 39 37 36 35 35 33
46 45 45 45 44 43 41 40 39 39 38 38 41 44 44 38 35 34 34 33 32 32
44 44 44 42 41 40 39 36 35 35 36 39 39 43 41 36 33 32 31 30 31 35
41 41 40 39 39 37 36 35 34 33 35 38 40 41 40 39 35 34 33 34 34 35
Lifted_Index
4 4 6 8 10 10 11 11 11 11 11 11 10 10 10 10 10 10 9 9 9 9
4 4 5 7 9 10 10 11 11 11 11 10 10 10 10 9 9 9 9 9 9 9
4 4 5 7 8 9 9 9 10 10 10 10 10 9 9 9 9 9 9 9 10 10
4 4 5 6 7 7 8 9 9 10 10 9 9 9 9 9 9 10 10 10 10 10
3 3 4 4 5 6 7 7 8 9 9 9 9 8 9 9 9 9 9 9 9 9
2 3 3 3 4 4 5 5 6 7 7 8 8 7 8 8 8 8 8 8 7 7
2 2 3 3 3 4 4 4 5 5 6 6 7 7 7 7 7 7 7 7 7 7
1 2 2 3 3 3 3 4 4 5 5 6 6 6 6 6 6 6 6 7 7 7
2 2 2 3 3 3 3 3 4 5 5 5 6 6 6 6 6 6 6 7 7 8
3 3 3 3 3 3 3 4 4 5 5 5 5 5 5 6 6 6 6 7 8 8
5 5 4 4 4 4 4 4 4 5 5 5 5 5 5 6 6 6 7 8 9 9
6 6 5 5 5 5 5 5 5 5 5 5 5 5 6 6 7 7 8 9 10 10
6 6 6 5 5 5 5 6 6 6 6 6 6 7 7 8 8 8 9 10 10 10
7 6 6 6 5 5 6 6 6 6 6 6 7 8 8 9 9 9 9 10 10 10